Regional Weather Roundup
Issued by NWS New Orleans/Baton Rouge, LA

Home | Current Version | Previous Version | Graphics & Text | Print | Product List | Glossary On
Versions: 1 2 3 4 5 6 7 8 9 10 11 12 13 14 15 16 17 18 19 20 21 22 23 24 25 26 27 28 29 30 31 32 33 34 35 36 37 38 39 40 41 42 43 44 45 46 47 48 49 50
038
ASUS44 KLIX 251310
RWRLIX
NEW ORLEANS REGIONAL WEATHER ROUNDUP
NATIONAL WEATHER SERVICE NEW ORLEANS LA
700 AM CST SUN JAN 25 2015

NOTE: "FAIR" INDICATES FEW OR NO CLOUDS BELOW 12,000 FEET WITH NO
      SIGNIFICANT WEATHER AND/OR OBSTRUCTIONS TO VISIBILITY.
      SKY/WX - SKY CONDITION AND SIGNIFICANT WEATHER.
      TMP - AIR TEMPERATURE.     DP    - DEWPOINT TEMPERATURE.
      RH  - RELATIVE HUMIDITY.   PRES  - PRESSURE.
      HI  - HEAT INDEX.          WCI   - WIND CHILL INDEX.

*  THESE STATIONS ARE NOT NWS OR FAA STATIONS AND ARE NOT UNDER
   NWS QUALITY CONTROL.

LAZ038-040-048-061>063-065>067-069-251400-
SOUTHEAST LOUISIANA

CITY           SKY/WX    TMP DP  RH WIND       PRES   REMARKS
N.O. AUDUBON     N/A     43  42  99 MISG        N/A
N.O. INTL ARPT PTCLDY    44  41  89 S6        30.05F
N.O. LAKEFRONT CLEAR     48  43  82 SW12      30.06S
N.O. DOWNTOWN*   N/A     45  39  81 S5        30.06F
SLIDELL        FOG       35  33  92 S3        30.04S VSB 3/4
BATON ROUGE    CLEAR     42  40  92 SW5       30.02S
BOOTHVILLE     CLEAR     49  46  90 W5        30.08S
BELLE CHASSE   PTCLDY    37  35  92 SW5       30.06S FOG     WCI  33
BOGALUSA*        N/A     32  30  93 CALM      30.03F
GALLIANO*        N/A     39  39 100 MISG      30.07S FOG
NEW ROADS*       N/A     40  40  98 S7        30.02S FOG
GONZALES*        N/A     41  41  99 CALM      30.04F FOG
HAMMOND*       CLEAR     37  36  93 CALM      30.04F FOG
HOUMA*         CLEAR     37  37 100 SW7       30.06F WCI  32
PORT FOURCHON* SUNNY     50  48  93 CALM      30.11R

$$

MSZ070-080>082-251400-
SOUTHERN MISSISSIPPI

CITY           SKY/WX    TMP DP  RH WIND       PRES   REMARKS
MCCOMB         MOCLDY    35  29  78 MISG      29.98F HAZE
GULFPORT       CLEAR     35  34  96 CALM      30.05R FOG
BILOXI         CLEAR     42  41  97 W5        30.05R
PASCAGOULA     CLEAR     34  33  96 CALM      30.05R FOG
STENNIS ARPT*  CLEAR     34  30  86 CALM      30.05  FOG

$$

COASTAL OBSERVATIONS
LAKE AND NEARSHORE STATIONS

STATION/POSITION TIME  TEMP    WIND        PRES    WAVE
                       AIR SEA DIR/SP/G            HT/PER
                 (UTC) (F)     (DEG/KT/KT) (MB)    (FT/S)
PASCAGOULA       1300   46     260/  7/  8 1017.0
WAVELAND YACHT   1300   45     240/  6/  7 1016.7
GRAND ISLE       1300   52 55  270/  5/  6 1018.7
SOUTHWEST PASS   1300   53 45  300/  9/ 12 1018.9
NEW CANAL        1300   45 51  220/  6/  8 1018.0
SHELL BEACH      1300   45 52  210/  6/  7 1018.0

OFFSHORE STATIONS

STATION/POSITION TIME  TEMP    WIND        PRES    WAVE
                       AIR SEA DIR/SP/G            HT/PER
                 (UTC) (F)     (DEG/KT/KT) (MB)    (FT/S)
64 S DAUPHIN ISL 1234   57 70  270/ 17/ 21 1018.8    4/ 5

$$




USA.gov is the U.S. government's official web portal to all federal, state and local government web resources and services.